Location: Baix
(44.7118°N, 4.7648°E)
Time: 16:34:13
(UTC+00:00)

CZ-4C R/B - Pass Details

Date: 07 August 2020
Orbit: 409 x 491 km, 97.7° (Epoch: 23 September)

Event Time Altitude Azimuth Distance (km) Brightness Sun altitude
Exits shadow 03:54:14 - 197° (SSW) 2,062 5.8 -7.1°
Reaches altitude 10° 03:55:44 10° 208° (SSW) 1,497 5.0 -6.9°
Maximum altitude 03:58:23 24° 264° (W) 940 4.0 -6.5°
Drops below altitude 10° 04:01:06 10° 320° (NW) 1,539 5.5 -6.1°
Sets 04:03:25 0° 335° (NNW) 2,429 6.7 -5.7°
